Simultaneous Nadir Overpasses (SNOs) Predictions

Prediction of SNOs over PacNW region [( 10.00, 139.50) to ( 22.70, 165.60)] between AQUA and NPP Satellites:

Table of predicted SNOs over PacNW region for the next 30.0 days since TLE Epoch: 3/12/2022
Index Date (AQUA) Time (AQUA) AQUA Lat,Lon Date (NPP) Time (NPP) NPP Lat,Lon Distance(km) Time Diff (sec)
1 03/14/2022 02:41:31 22.66, 160.43 03/14/2022 02:38:02 27.01, 157.35 575.40 209
2 03/19/2022 15:08:48 22.60, 160.51 03/19/2022 15:11:15 23.30, 157.27 340.97 147
3 03/22/2022 03:30:29 22.65, 148.22 03/22/2022 03:27:24 22.19, 145.89 244.50 185
4 03/27/2022 15:57:43 22.61, 148.31 03/27/2022 16:01:11 26.10, 145.30 493.54 208
5 03/30/2022 02:40:30 22.66, 160.74 03/30/2022 02:37:01 23.56, 158.23 275.32 209
6 04/04/2022 15:07:41 22.61, 160.84 04/04/2022 15:11:10 23.41, 157.30 373.77 209
7 04/07/2022 03:29:19 22.64, 148.56 04/07/2022 03:27:19 22.12, 145.91 278.62 120
